Nellis AFB, NV

8:00 AM PST on December 17, 2017 (GMT -0800)
Nellis Air Force Base

Weather History for KLSV - September, 2013

Change the Weather History Date:

Tuesday, September 3, 2013

  Actual Average Record
Temperature  
Mean Temperature 86 °F -  
Max Temperature 96 °F 96 °F 107 °F (1996)
Min Temperature 76 °F 72 °F 62 °F (1999)
Cooling Degree Days 21    
Growing Degree Days 36 (Base 50)    
Moisture  
Dew Point 62 °F    
Average Humidity 43    
Maximum Humidity 72    
Minimum Humidity 26    
Precipitation  
Precipitation 0.00 in - - ()
Sea Level Pressure  
Sea Level Pressure 29.87 in    
Wind  
Wind Speed 8 mph (East)    
Max Wind Speed 23 mph    
Max Gust Speed 21 mph    
Visibility 10 miles    
Events      
Averages and records for this station are not official NWS values.
T = Trace of Precipitation, MM = Missing Value Source: NWS Daily Summary

Daily Weather History Graph

Daily Weather History Graph

Search for Another Location

Airport or City:

Trip Planner

Search our weather history database for the weather conditions in past years. The results will help you decide how hot, cold, wet, or windy it might be!

Date:

Astronomy

Sep. 03, 2013 Rise Set
Actual Time 6:13 AM PDT 7:04 PM PDT
Civil Twilight 5:47 AM PDT 7:30 PM PDT
Nautical Twilight 5:16 AM PDT 8:01 PM PDT
Astronomical Twilight 4:44 AM PDT 8:33 PM PDT
Moon 4:32 AM PDT (9/3) 5:53 PM PDT (9/3)
Length of Visible Light 13h 43m
Length of Day
12h 51m
Waning Crescent, 3% of the Moon is Illuminated
Sep 3
Waning Crescent
Sep 5
New
Sep 12
First Quarter
Sep 19
Full
Sep 26
Last Quarter

Hourly Weather History & Observations

Time (PDT) Temp. Heat Index Dew Point Humidity Pressure Visibility Wind Dir Wind Speed Gust Speed Precip Events Conditions
12:58 AM 93.2 °F 94.9 °F 64.4 °F 38% 29.76 in 10.0 mi SE 4.6 mph - N/A   Clear
1:58 AM 93.2 °F 94.9 °F 64.4 °F 38% 29.76 in 10.0 mi SE 4.6 mph - N/A   Clear
2:58 AM 93.2 °F 94.9 °F 64.4 °F 38% 29.76 in 10.0 mi SE 4.6 mph - N/A   Clear
3:58 AM 93.2 °F 94.9 °F 64.4 °F 38% 29.76 in 10.0 mi SE 4.6 mph - N/A   Clear
4:58 AM 93.2 °F 94.9 °F 64.4 °F 38% 29.76 in 10.0 mi SE 4.6 mph - N/A   Clear
5:58 AM 76.1 °F - 66.6 °F 72% 29.90 in 10.0 mi NE 13.8 mph 20.7 mph N/A   Mostly Cloudy
6:58 AM 77.0 °F - 65.8 °F 68% 29.92 in 10.0 mi NE 23.0 mph - N/A   Partly Cloudy
6:59 AM 77.0 °F - 66.2 °F 69% 29.99 in 10.0 mi ESE 20.7 mph - N/A   Partly Cloudy
7:58 AM 79.0 °F - 66.6 °F 66% 29.94 in 10.0 mi ESE 16.1 mph - N/A   Partly Cloudy
8:58 AM 80.4 °F 82.3 °F 65.3 °F 60% 29.95 in 10.0 mi ESE 18.4 mph - N/A   Clear
9:58 AM 83.3 °F 85.1 °F 65.3 °F 54% 29.95 in 10.0 mi ESE 16.1 mph - N/A   Partly Cloudy
10:58 AM 86.0 °F 87.3 °F 64.0 °F 48% 29.94 in 10.0 mi ESE 16.1 mph - N/A   Clear
11:58 AM 88.5 °F 88.9 °F 62.2 °F 41% 29.92 in 10.0 mi ESE 9.2 mph - N/A   Partly Cloudy
12:58 PM 90.3 °F 91.2 °F 62.8 °F 40% 29.90 in 10.0 mi East 9.2 mph - N/A   Clear
1:56 PM 91.4 °F 91.4 °F 60.8 °F 36% 29.95 in 10.0 mi ESE 5.8 mph - N/A   Partly Cloudy
2:56 PM 95.0 °F 95.2 °F 60.8 °F 32% 29.92 in 10.0 mi SE 3.5 mph - N/A   Clear
3:56 PM 95.0 °F 94.4 °F 59.0 °F 30% 29.89 in 10.0 mi East 2.3 mph - N/A   Clear
4:56 PM 95.0 °F 93.7 °F 57.2 °F 28% 29.87 in 10.0 mi Variable 1.2 mph - N/A   Clear
5:58 PM 96.1 °F 94.5 °F 55.8 °F 26% 29.79 in 10.0 mi East 6.9 mph - N/A   Clear
6:58 PM 95.5 °F 94.4 °F 57.2 °F 28% 29.80 in 10.0 mi East 4.6 mph - N/A   Clear
7:58 PM 93.4 °F 91.5 °F 56.1 °F 28% 29.81 in 10.0 mi NE 4.6 mph - N/A   Clear
8:58 PM 90.9 °F 90.3 °F 60.1 °F 35% 29.84 in 10.0 mi ENE 6.9 mph - N/A   Clear
9:58 PM 88.9 °F 88.5 °F 59.9 °F 38% 29.85 in 10.0 mi ENE 6.9 mph - N/A   Clear
10:58 PM 87.4 °F 86.5 °F 57.9 °F 37% 29.85 in 10.0 mi ENE 8.1 mph - N/A   Clear
11:58 PM 86.5 °F 85.6 °F 57.9 °F 38% 29.86 in 10.0 mi ENE 8.1 mph - N/A   Clear